[[{"header":{"parameterUnit":"m.s-1","parameterCategory":1,"la1":30.2991,"la2":30.254,"lo1":-89.0895,"lo2":-89.0444,"dy":0.0017,"dx":0.0017,"nx":28,"ny":28,"refTime":"2025-12-18T09:00:00:Z","depth":0,"parameterNumber":2,"parameterNumberName":"U-component_of_WINDS"},"data":[0,0,0,0,0,0,0,0,0,0,0,0,0,0,0,0,0,0,0,0,0,0,0,0,0,0,0,0,0,0,0,0,0,0,0,0,0,0,0,0,0,0,0,0,0,0,0,0,0,0,0,0,0,0,0,0,0,0,0.571,0.5711,0,0.5752,0.5752,0.5753,0.5787,0.5788,0.5788,0.5788,0.5829,0.583,0.5831,0,0,0,0,0,0,0,0,0,0,0,0,0,0.566,0.566,0.571,0.5711,0.5711,0.5752,0.5752,0.5753,0.5787,0.5788,0.5788,0.5788,0.5829,0.583,0.5831,0,0,0,0,0,0,0,0,0,0,0,0,0,0.5689,0.5661,0.571,0.5733,0.5736,0.5752,0.5753,0.5753,0.5787,0.5788,0.5788,0.5789,0.5829,0.583,0.5831,0.5827,0,0,0.5834,0.5835,0,0,0,0,0,0,0,0,0.5688,0.5691,0.5729,0.5732,0.5735,0.5765,0.575,0.5778,0.5787,0.5767,0.5788,0.5789,0.5807,0.581,0.5817,0.5828,0.583,0.5834,0.5835,0.5835,0.5836,0,0,0,0,0,0,0,0.5686,0.569,0.5727,0.573,0.5733,0.5741,0.5746,0.5755,0.5784,0.5769,0.5772,0.5776,0.5809,0.5815,0.5818,0.5831,0.5834,0.5835,0.5836,0.5836,0.5843,0.5842,0,0,0,0,0,0,0.568,0.5688,0.5725,0.5728,0.5712,0.5742,0.5747,0.5755,0.5784,0.5789,0.5776,0.5778,0.5813,0.5816,0.5819,0.5817,0.5835,0.5836,0.5837,0.5843,0.5843,0.5842,0,0,0,0,0,0,0.5679,0.5683,0.5724,0.5709,0.5714,0.5742,0.575,0.5755,0.5762,0.5789,0.5794,0.5778,0.5814,0.5818,0.5825,0.5819,0.5837,0.5838,0.5844,0.5843,0.5842,0.5812,0,0,0,0,0,0,0.5677,0.5682,0.5681,0.5708,0.5715,0.5728,0.575,0.5756,0.5764,0.5767,0.5792,0.5796,0.5815,0.5823,0.5826,0.5821,0.5839,0.5844,0.5844,0.5843,0.5813,0.581,0.5807,0,0,0,0,0,0.5675,0.567,0.5681,0.5685,0.5714,0.5728,0.5732,0.5754,0.5763,0.5762,0.578,0.5796,0.5819,0.5824,0.5827,0.5822,0.5845,0.5844,0.5843,0.5815,0.5811,0.5807,0,0,0,0,0,0,0.564,0.5674,0.5686,0.569,0.5706,0.5734,0.5733,0.5748,0.5761,0.5764,0.579,0.5795,0.5799,0.5812,0.5816,0.582,0.5834,0.5834,0.5812,0.5808,0.5805,0.5801,0.584,0,0,0,0,0,0.5633,0.5642,0.5671,0.5671,0.5679,0.5705,0.5711,0.5727,0.5745,0.5751,0.5769,0.5785,0.5797,0.5803,0.5815,0.5816,0.5822,0.5814,0.5811,0.5808,0.5807,0.581,0.5807,0.5838,0.5838,0.5839,0,0,0.5618,0.5638,0.5641,0.5665,0.5679,0.5688,0.571,0.5718,0.5724,0.5752,0.576,0.5774,0.5794,0.5798,0.5801,0.5808,0.58,0.5807,0.5805,0.5805,0.5808,0.5805,0.5802,0.5838,0.5838,0.5838,0,0,0.5595,0.5611,0.5613,0.5627,0.5649,0.5667,0.5667,0.5694,0.5704,0.5713,0.5734,0.5743,0.5761,0.5775,0.5784,0.5768,0.5783,0.5772,0.5755,0.5756,0.5754,0.5752,0.5746,0.5744,0.5771,0.5771,0.5771,0,0.5573,0.5587,0.5612,0.5619,0.5629,0.5656,0.5659,0.5671,0.5696,0.5702,0.571,0.5736,0.5751,0.5759,0.5755,0.5762,0.5763,0.5768,0.5752,0.575,0.5749,0.5744,0.5742,0.5769,0.5769,0.5769,0.5769,0,0.5559,0.5569,0.5568,0.5592,0.5602,0.5606,0.5632,0.5639,0.5655,0.5671,0.5681,0.57,0.5717,0.572,0.5735,0.5731,0.5735,0.5748,0.5762,0.5744,0.5739,0.5738,0.5767,0.5767,0.5768,0.5768,0,0,0.5513,0.5552,0.5551,0.5563,0.559,0.5598,0.5605,0.5622,0.5628,0.5644,0.565,0.5666,0.5679,0.5689,0.5706,0.5708,0.5694,0.5721,0.5722,0.5715,0.5692,0.5681,0.5678,0.5705,0.5705,0.5705,0.569,0,0.5493,0.5507,0.553,0.5536,0.5545,0.5573,0.5578,0.5596,0.5612,0.5622,0.564,0.5651,0.5667,0.5674,0.5677,0.5695,0.569,0.5697,0.5711,0.5711,0.5704,0.5676,0.5665,0.5649,0.5688,0.5688,0.5688,0,0.5472,0.5488,0.5495,0.5523,0.5527,0.5532,0.5551,0.556,0.5581,0.5593,0.5606,0.5625,0.5633,0.5647,0.566,0.5664,0.5671,0.5681,0.5681,0.5682,0.5697,0.5676,0.5645,0.5642,0.5685,0.5686,0.5686,0,0.5437,0.546,0.5468,0.5477,0.551,0.5513,0.5526,0.5548,0.5557,0.5573,0.558,0.5597,0.5605,0.5618,0.5641,0.5649,0.5651,0.5667,0.5661,0.566,0.5658,0.5658,0.5628,0.5665,0.5665,0.5665,0.5665,0,0.5412,0.5415,0.5452,0.5457,0.5461,0.5489,0.5493,0.5509,0.5528,0.5536,0.5561,0.5568,0.5599,0.5609,0.5628,0.5635,0.5639,0.5649,0.5653,0.5646,0.5645,0.565,0.5651,0.5664,0.5664,0.5664,0.5665,0,0.5372,0.5398,0.5408,0.5439,0.5447,0.5449,0.5476,0.5481,0.55,0.551,0.5514,0.5543,0.5557,0.5582,0.5603,0.5615,0.5619,0.5627,0.5612,0.5614,0.5607,0.5607,0.5578,0.5575,0.5614,0.5614,0.5614,0,0.5354,0.5357,0.539,0.5397,0.541,0.5422,0.5433,0.5461,0.547,0.5495,0.5498,0.5514,0.5529,0.555,0.5573,0.5589,0.5598,0.5587,0.56,0.5593,0.5597,0.5596,0.5597,0.5583,0.5582,0.5582,0.5582,0,0.5319,0.5332,0.5346,0.5365,0.5377,0.5393,0.541,0.5415,0.5447,0.5456,0.5472,0.5483,0.5506,0.5521,0.5542,0.5556,0.5574,0.5578,0.5577,0.5569,0.5559,0.5564,0.5602,0.5578,0.5578,0.5578,0.5578,0.5579,0.5289,0.5294,0.5318,0.5333,0.5349,0.5365,0.5372,0.5393,0.5406,0.5427,0.5443,0.5457,0.548,0.5509,0.5522,0.5534,0.5542,0.5541,0.5541,0.554,0.5537,0.5559,0.5538,0.5538,0.5538,0.5538,0.5538,0,0.5255,0.5272,0.5286,0.531,0.5322,0.534,0.5361,0.5369,0.5382,0.5402,0.5416,0.5434,0.545,0.5475,0.5494,0.5498,0.5507,0.5502,0.5501,0.5504,0.5528,0.5527,0.5494,0.5495,0.5495,0.5495,0.5495,0.5495,0.5239,0.5247,0.5263,0.5281,0.5298,0.5313,0.5323,0.5338,0.5354,0.5374,0.5388,0.5404,0.5427,0.5447,0.5463,0.547,0.5475,0.5467,0.5477,0.5498,0.5502,0.5506,0.5505,0.5468,0.5468,0.5451,0.5451,0.5451]},{"header":{"parameterUnit":"m.s-1","parameterCategory":1,"la1":30.2991,"la2":30.254,"lo1":-89.0895,"lo2":-89.0444,"dy":0.0017,"dx":0.0017,"nx":28,"ny":28,"refTime":"2025-12-18T09:00:00:Z","depth":0,"parameterNumber":3,"parameterNumberName":"V-component_of_WINDS"},"data":[0,0,0,0,0,0,0,0,0,0,0,0,0,0,0,0,0,0,0,0,0,0,0,0,0,0,0,0,0,0,0,0,0,0,0,0,0,0,0,0,0,0,0,0,0,0,0,0,0,0,0,0,0,0,0,0,0,0,-6.2623,-6.2624,0,-6.2713,-6.2714,-6.2715,-6.2639,-6.2636,-6.2632,-6.2629,-6.2717,-6.2722,-6.2727,0,0,0,0,0,0,0,0,0,0,0,0,0,-6.238,-6.2385,-6.2622,-6.2624,-6.2625,-6.2713,-6.2714,-6.2715,-6.2639,-6.2635,-6.2632,-6.2628,-6.2715,-6.2721,-6.2728,0,0,0,0,0,0,0,0,0,0,0,0,0,-6.248,-6.2387,-6.2622,-6.2598,-6.2596,-6.2713,-6.2714,-6.2716,-6.264,-6.2635,-6.2631,-6.2626,-6.2713,-6.2721,-6.2729,-6.2872,0,0,-6.2753,-6.2756,0,0,0,0,0,0,0,0,-6.2474,-6.2488,-6.26,-6.26,-6.2598,-6.266,-6.2661,-6.2768,-6.2641,-6.2623,-6.2629,-6.2624,-6.2701,-6.271,-6.2737,-6.2876,-6.288,-6.2753,-6.2758,-6.2762,-6.2764,0,0,0,0,0,0,0,-6.2467,-6.2484,-6.2658,-6.2602,-6.2601,-6.2581,-6.259,-6.2681,-6.2688,-6.2625,-6.2619,-6.2631,-6.27,-6.273,-6.2739,-6.2881,-6.2753,-6.276,-6.2765,-6.2768,-6.3145,-6.315,0,0,0,0,0,0,-6.2463,-6.2479,-6.2655,-6.2661,-6.2523,-6.2589,-6.2599,-6.2645,-6.2687,-6.2688,-6.2635,-6.2627,-6.2719,-6.273,-6.2741,-6.2914,-6.2762,-6.2769,-6.2774,-6.314,-6.3146,-6.3152,0,0,0,0,0,0,-6.2459,-6.248,-6.2651,-6.2569,-6.2589,-6.2598,-6.265,-6.2649,-6.2679,-6.2695,-6.2695,-6.2665,-6.2715,-6.273,-6.2841,-6.2916,-6.2773,-6.278,-6.3133,-6.3142,-6.3149,-6.326,0,0,0,0,0,0,-6.2452,-6.2479,-6.2534,-6.257,-6.2594,-6.2751,-6.2655,-6.2654,-6.2693,-6.2684,-6.2722,-6.2724,-6.2713,-6.283,-6.2849,-6.2924,-6.2786,-6.3127,-6.3137,-6.3146,-6.325,-6.3271,-6.3289,0,0,0,0,0,-6.2444,-6.256,-6.2537,-6.2559,-6.2664,-6.2756,-6.2769,-6.2755,-6.27,-6.2755,-6.2766,-6.2723,-6.2905,-6.2842,-6.2863,-6.2942,-6.3122,-6.3134,-6.3146,-6.3241,-6.3267,-6.3288,0,0,0,0,0,0,-6.253,-6.2565,-6.254,-6.2672,-6.2712,-6.2743,-6.2812,-6.2782,-6.2837,-6.2826,-6.2804,-6.2814,-6.2931,-6.2947,-6.2876,-6.3084,-6.3004,-6.3021,-6.307,-6.3094,-6.3113,-6.3107,-6.2793,0,0,0,0,0,-6.2565,-6.2639,-6.2664,-6.2778,-6.28,-6.2803,-6.2842,-6.2828,-6.2868,-6.2884,-6.2902,-6.2942,-6.3007,-6.3051,-6.3112,-6.3251,-6.3259,-6.3316,-6.3335,-6.3351,-6.3366,-6.3442,-6.3468,-6.3191,-6.319,-6.319,0,0,-6.2637,-6.2665,-6.2712,-6.2796,-6.2826,-6.2902,-6.2818,-6.2901,-6.2957,-6.2896,-6.3003,-6.3018,-6.306,-6.3186,-6.3242,-6.3203,-6.3445,-6.3366,-6.3379,-6.3385,-6.3457,-6.3484,-6.3507,-6.3199,-6.3197,-6.3196,0,0,-6.2808,-6.2836,-6.2936,-6.2967,-6.3014,-6.3015,-6.3039,-6.3076,-6.3084,-6.3192,-6.3148,-6.3213,-6.3327,-6.336,-6.3391,-6.3576,-6.354,-6.3596,-6.3699,-6.3773,-6.3795,-6.3815,-6.3882,-6.3907,-6.3611,-6.3611,-6.3611,0,-6.2891,-6.3006,-6.299,-6.3078,-6.3116,-6.3067,-6.3167,-6.3198,-6.3262,-6.3289,-6.3244,-6.3387,-6.3412,-6.3546,-6.3592,-6.3618,-6.3645,-6.3593,-6.3794,-6.3813,-6.3831,-6.3895,-6.392,-6.3618,-6.3617,-6.3617,-6.3616,0,-6.3107,-6.3187,-6.3261,-6.3327,-6.3373,-6.3467,-6.3464,-6.3513,-6.3495,-6.3502,-6.3612,-6.364,-6.3707,-6.3737,-6.3719,-6.387,-6.3844,-6.3797,-6.3717,-6.3864,-6.3925,-6.3949,-6.3628,-6.3625,-6.3623,-6.3622,0,0,-6.3335,-6.3392,-6.342,-6.345,-6.3498,-6.3559,-6.365,-6.3718,-6.3761,-6.3806,-6.3883,-6.3981,-6.3938,-6.3974,-6.3959,-6.4025,-6.4172,-6.3969,-6.397,-6.4008,-6.4341,-6.4377,-6.4406,-6.4147,-6.4152,-6.4156,-6.4338,0,-6.3509,-6.3671,-6.366,-6.3811,-6.3885,-6.384,-6.392,-6.3958,-6.3966,-6.4029,-6.4037,-6.4108,-6.4046,-6.4067,-6.413,-6.4141,-6.4239,-6.4127,-6.4218,-6.4222,-6.4211,-6.4437,-6.4476,-6.4647,-6.4361,-6.4365,-6.4368,0,-6.3734,-6.3791,-6.3951,-6.399,-6.4021,-6.4093,-6.4155,-6.4216,-6.4258,-6.4259,-6.4301,-6.4275,-6.4367,-6.4284,-6.441,-6.4335,-6.4371,-6.4382,-6.4388,-6.4397,-6.4305,-6.4454,-6.47,-6.4727,-6.4404,-6.4401,-6.4399,0,-6.3887,-6.4003,-6.4114,-6.4141,-6.4188,-6.4241,-6.4263,-6.43,-6.4342,-6.4396,-6.4423,-6.4486,-6.4521,-6.4569,-6.4562,-6.4502,-6.4691,-6.4606,-6.4695,-6.4695,-6.4737,-6.4735,-6.4995,-6.4758,-6.4758,-6.4757,-6.4757,0,-6.4084,-6.4184,-6.4184,-6.4252,-6.4363,-6.4349,-6.4458,-6.4474,-6.4508,-6.4578,-6.4541,-6.4608,-6.4593,-6.4659,-6.4653,-6.4759,-6.4774,-6.4778,-6.4775,-6.4783,-6.4783,-6.4807,-6.4796,-6.4764,-6.4763,-6.4761,-6.476,0,-6.4274,-6.4278,-6.4397,-6.4433,-6.4445,-6.4525,-6.4555,-6.462,-6.4626,-6.4715,-6.4735,-6.4744,-6.482,-6.4817,-6.4901,-6.4897,-6.5029,-6.5011,-6.5016,-6.5013,-6.5102,-6.5095,-6.5388,-6.5427,-6.5163,-6.5166,-6.5168,0,-6.4401,-6.4477,-6.4523,-6.4569,-6.4595,-6.4668,-6.4712,-6.4701,-6.4748,-6.4802,-6.486,-6.4933,-6.4991,-6.5114,-6.5127,-6.5192,-6.5177,-6.5276,-6.5187,-6.5192,-6.5181,-6.5178,-6.5186,-6.5293,-6.5296,-6.5299,-6.5301,0,-6.4626,-6.4624,-6.469,-6.4757,-6.4811,-6.4862,-6.491,-6.4948,-6.4942,-6.4996,-6.5075,-6.512,-6.5209,-6.5282,-6.5344,-6.5365,-6.5333,-6.5329,-6.5353,-6.5362,-6.5362,-6.5365,-6.5066,-6.5322,-6.532,-6.5318,-6.5317,-6.5316,-6.4789,-6.4856,-6.49,-6.4974,-6.5009,-6.5055,-6.5118,-6.5133,-6.5199,-6.5272,-6.526,-6.5348,-6.5388,-6.547,-6.5497,-6.5565,-6.553,-6.5564,-6.5573,-6.5583,-6.5594,-6.535,-6.5576,-6.5575,-6.5575,-6.5574,-6.5574,0,-6.5014,-6.504,-6.5109,-6.5178,-6.5237,-6.5203,-6.5254,-6.5305,-6.5384,-6.5425,-6.5484,-6.5575,-6.5646,-6.5665,-6.5733,-6.5784,-6.5771,-6.5802,-6.5799,-6.5805,-6.562,-6.5594,-6.5812,-6.5812,-6.5812,-6.5812,-6.5812,-6.5812,-6.5138,-6.525,-6.5254,-6.5383,-6.5408,-6.5496,-6.5528,-6.557,-6.5603,-6.5707,-6.5767,-6.578,-6.5813,-6.5883,-6.5947,-6.595,-6.5978,-6.6016,-6.6014,-6.5842,-6.5818,-6.5795,-6.577,-6.6022,-6.6022,-6.6194,-6.6195,-6.6196]}]]